When you browse on this site, cookies collect data to enhance your experience and personalize the content and advertising you see.
Visit our Privacy Policy to learn more. By continuing to use the site, you agree to this use of cookies and data.
  • In Portugal
  • List of Countries
  • For 7 days
  • Water Temperature
  • Weather Map
  • Weather Widgets
  • user-avatar
    Login

    Hourly Weather Stepanakert

    Today, 24 August, Saturday

    Time Temperature Precipitation Wind Pressure Humidity
    00:00 +23°C° 0 mm 2 mps 691 mmHg 43%
    01:00 +23°C° 0 mm 2 mps 691 mmHg 44%
    02:00 +23°C° 0 mm 2 mps 691 mmHg 45%
    03:00 +21°C° 0 mm 2 mps 691 mmHg 45%
    04:00 +21°C° 0 mm 2 mps 692 mmHg 46%
    05:00 +21°C° 0 mm 2 mps 692 mmHg 48%
    06:00 +21°C° 0 mm 2 mps 692 mmHg 49%
    07:00 +25°C° 0 mm 2 mps 692 mmHg 46%
    08:00 +27°C° 0 mm 2 mps 693 mmHg 42%
    09:00 +29°C° 0 mm 2 mps 693 mmHg 39%
    10:00 +30°C° 0 mm 3 mps 693 mmHg 37%
    11:00 +31°C° 0 mm 3 mps 693 mmHg 35%
    12:00 +33°C° 0 mm 3 mps 693 mmHg 33%
    13:00 +34°C° 0 mm 3 mps 692 mmHg 32%
    14:00 +34°C° 0 mm 3 mps 692 mmHg 31%
    15:00 +35°C° 0 mm 3 mps 692 mmHg 31%
    16:00 +34°C° 0 mm 3 mps 692 mmHg 29%
    17:00 +33°C° 0 mm 4 mps 692 mmHg 28%
    18:00 +32°C° 0 mm 4 mps 691 mmHg 27%
    19:00 +29°C° 0 mm 3 mps 692 mmHg 30%
    20:00 +27°C° 0 mm 2 mps 692 mmHg 33%
    21:00 +25°C° 0 mm 1 mps 692 mmHg 35%
    22:00 +24°C° 0 mm 2 mps 692 mmHg 36%
    23:00 +24°C° 0 mm 2 mps 692 mmHg 36%

    Tomorrow, 25 August, Sunday

    Time Temperature Precipitation Wind Pressure Humidity
    00:00 +24°C° 0 mm 3 mps 692 mmHg 36%
    01:00 +23°C° 0 mm 2 mps 692 mmHg 36%
    02:00 +23°C° 0 mm 2 mps 692 mmHg 37%
    03:00 +23°C° 0 mm 2 mps 692 mmHg 37%
    04:00 +23°C° 0 mm 2 mps 692 mmHg 37%
    05:00 +23°C° 0 mm 2 mps 692 mmHg 37%
    06:00 +23°C° 0 mm 2 mps 692 mmHg 38%
    07:00 +25°C° 0 mm 2 mps 693 mmHg 35%
    08:00 +28°C° 0 mm 2 mps 693 mmHg 32%
    09:00 +30°C° 0 mm 2 mps 693 mmHg 29%
    10:00 +31°C° 0 mm 3 mps 693 mmHg 28%
    11:00 +33°C° 0 mm 3 mps 693 mmHg 27%
    12:00 +34°C° 0 mm 3 mps 693 mmHg 27%
    13:00 +34°C° 0 mm 3 mps 692 mmHg 26%
    14:00 +34°C° 0 mm 3 mps 692 mmHg 26%
    15:00 +35°C° 0 mm 3 mps 692 mmHg 25%
    16:00 +34°C° 0 mm 3 mps 692 mmHg 27%
    17:00 +31°C° 0 mm 2 mps 691 mmHg 29%
    18:00 +30°C° 0 mm 2 mps 691 mmHg 30%
    19:00 +28°C° 0 mm 2 mps 691 mmHg 34%
    20:00 +26°C° 0 mm 2 mps 692 mmHg 37%
    21:00 +24°C° 0 mm 1 mps 692 mmHg 40%
    22:00 +24°C° 0 mm 1 mps 692 mmHg 39%
    23:00 +23°C° 0 mm 1 mps 692 mmHg 39%

    Day after tomorrow, 26 August, Monday

    Time Temperature Precipitation Wind Pressure Humidity
    00:00 +23°C° 0 mm 1 mps 692 mmHg 39%
    01:00 +23°C° 0 mm 1 mps 692 mmHg 39%
    02:00 +22°C° 0 mm 1 mps 692 mmHg 39%
    03:00 +22°C° 0 mm 1 mps 692 mmHg 39%
    04:00 +22°C° 0 mm 1 mps 693 mmHg 40%
    05:00 +22°C° 0 mm 1 mps 693 mmHg 40%
    06:00 +22°C° 0 mm 1 mps 693 mmHg 41%
    07:00 +24°C° 0 mm 1 mps 694 mmHg 35%
    08:00 +26°C° 0 mm 2 mps 694 mmHg 29%
    09:00 +29°C° 0 mm 2 mps 694 mmHg 24%
    10:00 +30°C° 0 mm 3 mps 694 mmHg 22%
    11:00 +31°C° 0 mm 3 mps 694 mmHg 21%
    12:00 +33°C° 0 mm 4 mps 694 mmHg 20%
    13:00 +33°C° 0 mm 4 mps 694 mmHg 20%
    14:00 +33°C° 0 mm 4 mps 694 mmHg 20%
    15:00 +33°C° 0 mm 5 mps 693 mmHg 20%
    16:00 +32°C° 0 mm 4 mps 693 mmHg 25%
    17:00 +29°C° 0 mm 4 mps 693 mmHg 30%
    18:00 +27°C° 0 mm 4 mps 693 mmHg 34%
    19:00 +26°C° 0 mm 3 mps 693 mmHg 40%
    20:00 +24°C° 0 mm 3 mps 694 mmHg 46%
    21:00 +21°C° 0 mm 2 mps 694 mmHg 51%
    22:00 +21°C° 0 mm 2 mps 695 mmHg 53%
    23:00 +21°C° 0 mm 2 mps 695 mmHg 54%

    27 August, Tuesday

    Time Temperature Precipitation Wind Pressure Humidity
    00:00 +21°C° 0 mm 2 mps 695 mmHg 56%
    01:00 +21°C° 0 mm 2 mps 695 mmHg 57%
    02:00 +20°C° 0 mm 2 mps 695 mmHg 59%
    03:00 +21°C° 0 mm 1 mps 694 mmHg 60%
    04:00 +21°C° 0 mm 1 mps 694 mmHg 60%
    05:00 +21°C° 0 mm 1 mps 694 mmHg 59%
    06:00 +21°C° 0 mm 1 mps 694 mmHg 58%
    07:00 +23°C° 0 mm 2 mps 694 mmHg 52%
    08:00 +25°C° 0 mm 3 mps 695 mmHg 46%
    09:00 +27°C° 0 mm 4 mps 695 mmHg 40%
    10:00 +28°C° 0 mm 4 mps 694 mmHg 38%
    11:00 +29°C° 0 mm 4 mps 694 mmHg 36%
    12:00 +30°C° 0 mm 4 mps 694 mmHg 34%
    13:00 +30°C° 0 mm 4 mps 693 mmHg 34%
    14:00 +32°C° 0 mm 4 mps 693 mmHg 33%
    15:00 +32°C° 0 mm 4 mps 692 mmHg 33%
    16:00 +30°C° 0.1 mm 3 mps 692 mmHg 37%
    17:00 +28°C° 0.1 mm 2 mps 692 mmHg 42%
    18:00 +27°C° 0.1 mm 2 mps 692 mmHg 46%
    19:00 +25°C° 0.2 mm 1 mps 692 mmHg 52%
    20:00 +24°C° 0.2 mm 1 mps 691 mmHg 58%
    21:00 +23°C° 0.2 mm 1 mps 691 mmHg 63%
    22:00 +22°C° 0.1 mm 1 mps 691 mmHg 64%
    23:00 +22°C° 0.1 mm 1 mps 691 mmHg 64%

    28 August, Wednesday

    Time Temperature Precipitation Wind Pressure Humidity
    00:00 +21°C° 0.1 mm 2 mps 691 mmHg 65%
    01:00 +20°C° 0 mm 2 mps 690 mmHg 65%
    02:00 +21°C° 0 mm 1 mps 690 mmHg 65%
    03:00 +21°C° 0 mm 1 mps 690 mmHg 65%
    04:00 +21°C° 0 mm 1 mps 690 mmHg 65%
    05:00 +21°C° 0 mm 1 mps 690 mmHg 65%
    06:00 +21°C° 0 mm 1 mps 690 mmHg 64%
    07:00 +23°C° 0 mm 1 mps 691 mmHg 59%
    08:00 +25°C° 0 mm 2 mps 691 mmHg 54%
    09:00 +27°C° 0 mm 2 mps 691 mmHg 49%
    10:00 +28°C° 0 mm 3 mps 691 mmHg 47%
    11:00 +29°C° 0 mm 3 mps 691 mmHg 44%
    12:00 +32°C° 0 mm 4 mps 691 mmHg 41%
    13:00 +31°C° 0 mm 3 mps 691 mmHg 40%
    14:00 +31°C° 0 mm 3 mps 690 mmHg 39%
    15:00 +31°C° 0 mm 3 mps 690 mmHg 39%
    16:00 +30°C° 0 mm 3 mps 690 mmHg 42%
    17:00 +29°C° 0 mm 2 mps 690 mmHg 45%
    18:00 +28°C° 0 mm 1 mps 690 mmHg 49%
    19:00 +26°C° 0 mm 1 mps 690 mmHg 54%
    20:00 +24°C° 0 mm 1 mps 691 mmHg 60%
    21:00 +23°C° 0 mm 1 mps 691 mmHg 66%
    22:00 +22°C° 0 mm 1 mps 691 mmHg 68%
    23:00 +22°C° 0 mm 1 mps 691 mmHg 69%

    29 August, Thursday

    Time Temperature Precipitation Wind Pressure Humidity
    00:00 +19°C° 0 mm 0 mps 691 mmHg 70%
    01:00 +21°C° 0 mm 1 mps 692 mmHg 70%
    02:00 +20°C° 0 mm 1 mps 692 mmHg 70%
    03:00 +20°C° 0 mm 1 mps 692 mmHg 71%
    04:00 +20°C° 0 mm 1 mps 692 mmHg 69%
    05:00 +20°C° 0 mm 1 mps 692 mmHg 68%
    06:00 +20°C° 0 mm 1 mps 692 mmHg 66%
    07:00 +22°C° 0 mm 1 mps 693 mmHg 59%
    08:00 +24°C° 0 mm 2 mps 693 mmHg 53%
    09:00 +26°C° 0 mm 2 mps 693 mmHg 46%
    10:00 +27°C° 0 mm 3 mps 693 mmHg 44%
    11:00 +28°C° 0 mm 3 mps 693 mmHg 42%
    12:00 +29°C° 0 mm 3 mps 693 mmHg 41%
    13:00 +29°C° 0 mm 4 mps 692 mmHg 40%
    14:00 +30°C° 0 mm 4 mps 692 mmHg 39%
    15:00 +30°C° 0 mm 4 mps 692 mmHg 39%
    16:00 +29°C° 0 mm 4 mps 691 mmHg 44%
    17:00 +27°C° 0 mm 4 mps 691 mmHg 49%
    18:00 +25°C° 0 mm 4 mps 691 mmHg 54%
    19:00 +24°C° 0 mm 3 mps 691 mmHg 64%
    20:00 +21°C° 0 mm 2 mps 692 mmHg 74%
    21:00 +19°C° 0 mm 2 mps 692 mmHg 84%
    22:00 +19°C° 0.1 mm 2 mps 692 mmHg 87%
    23:00 +19°C° 0.1 mm 1 mps 692 mmHg 90%
    Show more